Location: ?
(35.4064°N, 139.3593°E)
Time: 05:26:42
(UTC+00:00)

ARIANE 6 FM1 Upper Stage - Visible Passes

Search period start: 09 December 2025 00:00
Search period end: 19 December 2025 00:00
Orbit: 522 x 611 km, 62.0° (Epoch: 08 December)

Date Brightness Start Highest point End Pass type
(mag) Time Alt. Az. Time Alt. Az. Time Alt. Az.
09 Dec 6.1 08:36:09 10° W 08:38:08 13° WSW 08:40:08 10° SW visible
09 Dec 6.4 20:54:40 10° SE 20:56:27 13° ESE 20:58:12 10° E visible
10 Dec 5.8 20:53:44 10° SSE 20:56:44 20° ESE 20:59:42 10° ENE visible
11 Dec 4.8 20:53:26 10° S 20:57:04 31° ESE 21:00:38 10° NE visible
12 Dec 3.6 20:53:27 10° SSW 20:57:24 50° ESE 21:01:18 10° NE visible
13 Dec 2.7 20:53:42 10° SSW 20:57:46 83° SE 21:01:48 10° NE visible
14 Dec 2.6 20:54:09 10° SW 20:58:11 61° NW 21:02:09 10° NNE visible
15 Dec 5.5 19:17:21 10° SSE 19:19:53 16° ESE 19:22:24 10° ENE visible
15 Dec 3.0 20:54:47 10° WSW 20:58:37 38° NW 21:02:22 10° NNE visible
16 Dec 4.8 19:17:51 16° SSE 19:20:09 25° ESE 19:23:28 10° ENE visible
16 Dec 3.6 20:55:39 10° WSW 20:59:04 26° NW 21:02:28 10° N visible
17 Dec 4.1 19:21:12 35° E 19:21:12 35° E 19:24:12 10° NE visible
17 Dec 4.1 20:57:22 12° W 20:59:35 18° NW 21:02:21 10° N visible
18 Dec 4.7 19:23:20 21° NE 19:23:20 21° NE 19:24:43 10° NE visible
18 Dec 4.4 20:59:27 12° NW 21:00:07 12° NW 21:01:53 10° NNW visible
